CPA570 VHHH-ROAH

Flight info

Callsign CPA570
Flight time 1h 54m
Altitude 41000
Route DALOL1X DALOL DCT DUMEP V631 ENVAR M750 DADON G581 HCN J7 PICHU Q13 IGURU Y57 VELNO VELNON
Aircraft A359/H-SABDE2E3GHIJ1J2J3J4J5LM1OP2RVWXYZ/LB1D1G1

Departure

Time 2026-05-06 13:38
Airport Hong Kong International Airport (VHHH)

Arrival

Time 2026-05-06 15:33
Airport Naha International Airport (ROAH)
Time Latitude Longitude Altitude Speed Heading
2026-05-06 12:57 22.31432 113.92927 43 ft 0 kts 161°
2026-05-06 13:18 22.31434 113.92927 20 ft 2 kts 161°
2026-05-06 13:18 22.31454 113.92919 18 ft 3 kts 161°
2026-05-06 13:18 22.31476 113.92911 39 ft 3 kts 161°
2026-05-06 13:19 22.31494 113.92903 40 ft 3 kts 164°
2026-05-06 13:19 22.31511 113.92900 41 ft 3 kts 198°
2026-05-06 13:19 22.31524 113.92907 39 ft 3 kts 234°
2026-05-06 13:19 22.31534 113.92926 41 ft 3 kts 251°
2026-05-06 13:20 22.31541 113.92948 40 ft 1 kts 251°
2026-05-06 13:20 22.31541 113.92949 40 ft 0 kts 251°
2026-05-06 13:24 22.31540 113.92946 43 ft 2 kts 251°
2026-05-06 13:24 22.31530 113.92915 42 ft 8 kts 251°
2026-05-06 13:24 22.31505 113.92836 43 ft 13 kts 251°
2026-05-06 13:24 22.31502 113.92744 41 ft 13 kts 291°
2026-05-06 13:25 22.31544 113.92647 43 ft 16 kts 296°
2026-05-06 13:25 22.31598 113.92529 43 ft 19 kts 297°
2026-05-06 13:25 22.31642 113.92426 43 ft 11 kts 290°
2026-05-06 13:25 22.31635 113.92334 43 ft 14 kts 251°
2026-05-06 13:26 22.31599 113.92222 43 ft 17 kts 251°
2026-05-06 13:26 22.31567 113.92122 43 ft 10 kts 251°
2026-05-06 13:26 22.31519 113.92067 43 ft 11 kts 189°
2026-05-06 13:26 22.31436 113.92089 43 ft 14 kts 161°
2026-05-06 13:27 22.31334 113.92127 43 ft 17 kts 161°
2026-05-06 13:27 22.31210 113.92174 43 ft 21 kts 161°
2026-05-06 13:27 22.31065 113.92229 43 ft 23 kts 161°
2026-05-06 13:27 22.30913 113.92286 42 ft 21 kts 160°
2026-05-06 13:28 22.30808 113.92325 43 ft 10 kts 161°
2026-05-06 13:28 22.30736 113.92338 43 ft 10 kts 201°
2026-05-06 13:28 22.30696 113.92262 43 ft 15 kts 250°
2026-05-06 13:28 22.30654 113.92132 43 ft 22 kts 251°
2026-05-06 13:29 22.30594 113.91946 43 ft 29 kts 250°
2026-05-06 13:29 22.30524 113.91729 43 ft 32 kts 250°
2026-05-06 13:29 22.30451 113.91505 43 ft 31 kts 250°
2026-05-06 13:29 22.30379 113.91277 43 ft 33 kts 250°
2026-05-06 13:30 22.30302 113.91042 43 ft 30 kts 250°
2026-05-06 13:30 22.30235 113.90836 43 ft 30 kts 251°
2026-05-06 13:30 22.30165 113.90618 43 ft 31 kts 251°
2026-05-06 13:30 22.30091 113.90388 43 ft 33 kts 251°
2026-05-06 13:31 22.30026 113.90186 43 ft 23 kts 251°
2026-05-06 13:31 22.29974 113.90026 43 ft 23 kts 251°
2026-05-06 13:31 22.29926 113.89879 43 ft 20 kts 250°
2026-05-06 13:31 22.29890 113.89768 43 ft 12 kts 245°
2026-05-06 13:32 22.29829 113.89737 43 ft 9 kts 172°
2026-05-06 13:32 22.29782 113.89752 43 ft 4 kts 161°
2026-05-06 13:32 22.29766 113.89758 43 ft 3 kts 161°
2026-05-06 13:32 22.29762 113.89760 43 ft 0 kts 161°
2026-05-06 13:34 22.29761 113.89760 43 ft 0 kts 161°
2026-05-06 13:34 22.29747 113.89765 43 ft 5 kts 161°
2026-05-06 13:34 22.29701 113.89783 43 ft 9 kts 160°
2026-05-06 13:34 22.29653 113.89829 43 ft 10 kts 113°
2026-05-06 13:35 22.29652 113.89887 43 ft 6 kts 79°
2026-05-06 13:35 22.29660 113.89917 43 ft 0 kts 71°
2026-05-06 13:37 22.29661 113.89919 43 ft 3 kts 71°
2026-05-06 13:38 22.29717 113.90094 42 ft 57 kts 71°
2026-05-06 13:38 22.29930 113.90754 44 ft 128 kts 71°
2026-05-06 13:38 22.30296 113.91829 398 ft 155 kts 70°
2026-05-06 13:38 22.30692 113.92919 1206 ft 160 kts 72°
2026-05-06 13:39 22.31051 113.94063 2019 ft 164 kts 75°
2026-05-06 13:39 22.31416 113.95325 2436 ft 188 kts 75°
2026-05-06 13:39 22.31691 113.96266 2678 ft 205 kts 74°
2026-05-06 13:39 22.32165 113.97785 3220 ft 219 kts 72°
2026-05-06 13:40 22.32856 113.99892 4140 ft 226 kts 72°
2026-05-06 13:40 22.33206 114.00961 4587 ft 230 kts 72°
2026-05-06 13:40 22.33685 114.02626 5269 ft 234 kts 78°
2026-05-06 13:40 22.33769 114.04384 5975 ft 236 kts 98°
2026-05-06 13:41 22.33260 114.06066 6686 ft 239 kts 121°
2026-05-06 13:41 22.32194 114.07445 7424 ft 242 kts 142°
2026-05-06 13:41 22.30715 114.08402 8031 ft 255 kts 161°
2026-05-06 13:41 22.28961 114.08799 8776 ft 261 kts 180°
2026-05-06 13:42 22.27111 114.08807 9451 ft 275 kts 184°
2026-05-06 13:42 22.25138 114.08750 10052 ft 289 kts 184°
2026-05-06 13:42 22.23060 114.08700 10507 ft 309 kts 184°
2026-05-06 13:42 22.20836 114.08661 10855 ft 330 kts 183°
2026-05-06 13:43 22.18469 114.08776 11178 ft 352 kts 172°
2026-05-06 13:43 22.16155 114.09768 11673 ft 368 kts 148°
2026-05-06 13:43 22.14319 114.11722 12300 ft 378 kts 125°
2026-05-06 13:43 22.13077 114.14239 12966 ft 383 kts 115°
2026-05-06 13:44 22.11944 114.16870 13613 ft 389 kts 116°
2026-05-06 13:44 22.10773 114.19470 14217 ft 393 kts 116°
2026-05-06 13:44 22.09554 114.22159 14836 ft 396 kts 117°
2026-05-06 13:44 22.08311 114.24777 15426 ft 399 kts 121°
2026-05-06 13:45 22.06562 114.27086 16018 ft 398 kts 140°
2026-05-06 13:45 22.02116 114.30683 17254 ft 402 kts 146°
2026-05-06 13:45 21.99840 114.32449 17843 ft 405 kts 146°
2026-05-06 13:46 21.97550 114.34237 18421 ft 408 kts 146°
2026-05-06 13:46 21.95247 114.36044 18920 ft 411 kts 146°
2026-05-06 13:46 21.92927 114.37871 19426 ft 414 kts 146°
2026-05-06 13:46 21.90590 114.39706 19917 ft 418 kts 146°
2026-05-06 13:47 21.88243 114.41582 20449 ft 422 kts 144°
2026-05-06 13:47 21.86105 114.43773 20950 ft 429 kts 133°
2026-05-06 13:47 21.84449 114.46470 21476 ft 436 kts 118°
2026-05-06 13:47 21.83372 114.49542 22000 ft 442 kts 108°
2026-05-06 13:48 21.82542 114.52749 22501 ft 447 kts 107°
2026-05-06 13:48 21.81731 114.55994 23011 ft 451 kts 107°
2026-05-06 13:48 21.80904 114.59265 23509 ft 454 kts 107°
2026-05-06 13:48 21.80062 114.62561 23927 ft 458 kts 107°
2026-05-06 13:49 21.79210 114.65872 24378 ft 461 kts 107°
2026-05-06 13:49 21.78349 114.69206 24846 ft 464 kts 107°
2026-05-06 13:49 21.77480 114.72562 25337 ft 467 kts 107°
2026-05-06 13:49 21.76602 114.75945 25847 ft 470 kts 107°
2026-05-06 13:50 21.75721 114.79340 26360 ft 474 kts 107°
2026-05-06 13:50 21.74867 114.82771 26860 ft 478 kts 104°
2026-05-06 13:50 21.74389 114.86277 27370 ft 482 kts 94°
2026-05-06 13:50 21.74248 114.89889 27879 ft 485 kts 91°
2026-05-06 13:51 21.74223 114.93536 28384 ft 489 kts 90°
2026-05-06 13:51 21.74251 114.97203 28885 ft 492 kts 89°
2026-05-06 13:51 21.74293 115.00899 29359 ft 496 kts 89°
2026-05-06 13:51 21.74327 115.04620 29854 ft 499 kts 89°
2026-05-06 13:52 21.74348 115.08367 30272 ft 503 kts 89°
2026-05-06 13:52 21.74358 115.12136 30645 ft 506 kts 90°
2026-05-06 13:52 21.74358 115.15938 31030 ft 510 kts 90°
2026-05-06 13:52 21.74353 115.19767 31414 ft 513 kts 89°
2026-05-06 13:53 21.74346 115.23608 31776 ft 516 kts 89°
2026-05-06 13:53 21.74338 115.27479 32129 ft 519 kts 89°
2026-05-06 13:53 21.74328 115.31368 32472 ft 521 kts 89°
2026-05-06 13:53 21.74318 115.35281 32802 ft 524 kts 89°
2026-05-06 13:54 21.74308 115.39207 33122 ft 527 kts 89°
2026-05-06 13:54 21.74297 115.43162 33441 ft 530 kts 89°
2026-05-06 13:54 21.74285 115.47135 33753 ft 532 kts 89°
2026-05-06 13:54 21.74272 115.51114 34161 ft 531 kts 89°
2026-05-06 13:55 21.74258 115.55083 34558 ft 530 kts 89°
2026-05-06 13:55 21.74243 115.59036 34936 ft 529 kts 89°
2026-05-06 13:55 21.74225 115.62994 35320 ft 528 kts 89°
2026-05-06 13:55 21.74210 115.66893 35680 ft 527 kts 89°
2026-05-06 13:56 21.74195 115.70840 36051 ft 527 kts 89°
2026-05-06 13:56 21.74179 115.74787 36400 ft 527 kts 89°
2026-05-06 13:56 21.74163 115.78722 36757 ft 526 kts 89°
2026-05-06 13:56 21.74145 115.82655 37107 ft 526 kts 89°
2026-05-06 13:57 21.74126 115.86587 37456 ft 525 kts 89°
2026-05-06 13:57 21.74105 115.90506 37805 ft 525 kts 89°
2026-05-06 13:57 21.74084 115.94429 38153 ft 524 kts 89°
2026-05-06 13:57 21.74062 115.98349 38488 ft 523 kts 89°
2026-05-06 13:58 21.74039 116.02262 38790 ft 523 kts 89°
2026-05-06 13:58 21.74015 116.06185 39057 ft 523 kts 89°
2026-05-06 13:58 21.73990 116.10090 39345 ft 521 kts 89°
2026-05-06 13:58 21.73964 116.13985 39629 ft 520 kts 89°
2026-05-06 13:59 21.73937 116.17869 39902 ft 519 kts 89°
2026-05-06 13:59 21.73910 116.21751 40166 ft 518 kts 89°
2026-05-06 13:59 21.73881 116.25624 40427 ft 517 kts 89°
2026-05-06 13:59 21.73852 116.29489 40691 ft 516 kts 89°
2026-05-06 14:00 21.73822 116.33351 40923 ft 516 kts 89°
2026-05-06 14:00 21.73792 116.37208 40983 ft 516 kts 89°
2026-05-06 14:00 21.73728 116.44864 40988 ft 515 kts 89°
2026-05-06 14:01 21.73660 116.52563 40989 ft 515 kts 89°
2026-05-06 14:01 21.73589 116.60272 40990 ft 515 kts 89°
2026-05-06 14:02 21.73514 116.67980 40990 ft 515 kts 89°
2026-05-06 14:02 21.73546 116.75686 40990 ft 514 kts 83°
2026-05-06 14:03 21.75103 116.83113 40988 ft 508 kts 68°
2026-05-06 14:03 21.77576 116.90248 40992 ft 508 kts 66°
2026-05-06 14:04 21.80167 116.97278 40985 ft 508 kts 65°
2026-05-06 14:04 21.82765 117.04353 40992 ft 508 kts 66°
2026-05-06 14:05 21.85334 117.11440 40997 ft 509 kts 66°
2026-05-06 14:05 21.87891 117.18540 40992 ft 509 kts 66°
2026-05-06 14:06 21.90445 117.25647 40990 ft 509 kts 66°
2026-05-06 14:06 21.92997 117.32754 40991 ft 509 kts 66°
2026-05-06 14:07 21.95546 117.39863 40990 ft 509 kts 66°
2026-05-06 14:07 21.98093 117.46973 40991 ft 508 kts 66°
2026-05-06 14:08 22.01296 117.53714 40993 ft 504 kts 56°
2026-05-06 14:08 22.04887 117.60145 40991 ft 504 kts 55°
2026-05-06 14:09 22.08567 117.66578 40995 ft 504 kts 55°
2026-05-06 14:09 22.12241 117.73018 40991 ft 504 kts 55°
2026-05-06 14:10 22.15897 117.79464 40996 ft 504 kts 55°
2026-05-06 14:10 22.19550 117.85924 40993 ft 504 kts 55°
2026-05-06 14:11 22.23199 117.92388 40994 ft 504 kts 55°
2026-05-06 14:11 22.26119 117.99301 40993 ft 511 kts 72°
2026-05-06 14:12 22.26889 118.06932 40997 ft 517 kts 92°
2026-05-06 14:12 22.26195 118.14673 40994 ft 519 kts 95°
2026-05-06 14:13 22.25248 118.22402 40994 ft 519 kts 96°
2026-05-06 14:13 22.24295 118.30071 40994 ft 519 kts 96°
2026-05-06 14:14 22.23374 118.37802 40993 ft 519 kts 96°
2026-05-06 14:14 22.22473 118.45535 40994 ft 519 kts 96°
2026-05-06 14:15 22.21572 118.53262 40994 ft 519 kts 96°
2026-05-06 14:15 22.20668 118.60996 40995 ft 519 kts 96°
2026-05-06 14:16 22.19756 118.68728 40994 ft 519 kts 96°
2026-05-06 14:16 22.18839 118.76462 40992 ft 519 kts 96°
2026-05-06 14:17 22.17920 118.84199 40991 ft 519 kts 96°
2026-05-06 14:17 22.16997 118.91926 40990 ft 519 kts 96°
2026-05-06 14:18 22.16073 118.99651 40993 ft 519 kts 96°
2026-05-06 14:18 22.15140 119.07378 40996 ft 519 kts 96°
2026-05-06 14:19 22.14200 119.15108 40994 ft 519 kts 96°
2026-05-06 14:19 22.13266 119.22784 40994 ft 520 kts 96°
2026-05-06 14:20 22.12324 119.30509 40995 ft 520 kts 96°
2026-05-06 14:20 22.11379 119.38237 40992 ft 520 kts 96°
2026-05-06 14:21 22.10431 119.45962 40989 ft 520 kts 96°
2026-05-06 14:21 22.09478 119.53689 40988 ft 520 kts 96°
2026-05-06 14:22 22.08522 119.61416 40986 ft 520 kts 96°
2026-05-06 14:22 22.07563 119.69148 40991 ft 520 kts 96°
2026-05-06 14:23 22.06597 119.76879 40991 ft 520 kts 96°
2026-05-06 14:23 22.05623 119.84605 40990 ft 520 kts 96°
2026-05-06 14:24 22.04646 119.92336 40992 ft 520 kts 96°
2026-05-06 14:24 22.03668 120.00060 40989 ft 520 kts 96°
2026-05-06 14:25 22.02699 120.07789 40985 ft 520 kts 96°
2026-05-06 14:25 22.01716 120.15521 40982 ft 520 kts 97°
2026-05-06 14:26 22.00893 120.21938 40981 ft 520 kts 97°
2026-05-06 14:26 21.99902 120.29659 40985 ft 520 kts 97°
2026-05-06 14:27 21.98906 120.37387 40985 ft 520 kts 97°
2026-05-06 14:27 21.97909 120.45103 40986 ft 520 kts 97°
2026-05-06 14:28 21.96908 120.52821 40988 ft 520 kts 97°
2026-05-06 14:28 21.95904 120.60533 40988 ft 520 kts 97°
2026-05-06 14:29 21.94895 120.68258 40992 ft 520 kts 97°
2026-05-06 14:29 21.93884 120.75969 40990 ft 520 kts 97°
2026-05-06 14:30 21.93146 120.83653 40992 ft 518 kts 88°
2026-05-06 14:30 21.93991 120.91314 40991 ft 515 kts 78°
2026-05-06 14:31 21.95330 120.98892 40996 ft 515 kts 76°
2026-05-06 14:31 21.96736 121.06456 40994 ft 515 kts 76°
2026-05-06 14:32 21.98177 121.14012 40993 ft 514 kts 72°
2026-05-06 14:32 22.00951 121.21016 40997 ft 505 kts 53°
2026-05-06 14:33 22.05121 121.27070 40997 ft 503 kts 48°
2026-05-06 14:33 22.09526 121.32923 40993 ft 503 kts 47°
2026-05-06 14:34 22.13954 121.38768 40992 ft 503 kts 47°
2026-05-06 14:34 22.18328 121.44598 40992 ft 503 kts 47°
2026-05-06 14:35 22.22712 121.50496 40992 ft 503 kts 47°
2026-05-06 14:35 22.27086 121.56397 40990 ft 503 kts 47°
2026-05-06 14:36 22.31462 121.62303 40988 ft 503 kts 47°
2026-05-06 14:36 22.35836 121.68209 40987 ft 504 kts 47°
2026-05-06 14:37 22.40212 121.74125 40992 ft 504 kts 47°
2026-05-06 14:37 22.44590 121.80038 40996 ft 504 kts 47°
2026-05-06 14:38 22.48969 121.85959 40995 ft 504 kts 47°
2026-05-06 14:38 22.53343 121.91884 40999 ft 504 kts 47°
2026-05-06 14:39 22.57716 121.97814 41001 ft 504 kts 47°
2026-05-06 14:39 22.62088 122.03749 40998 ft 504 kts 47°
2026-05-06 14:40 22.66460 122.09691 40998 ft 504 kts 47°
2026-05-06 14:40 22.70789 122.15582 41001 ft 504 kts 47°
2026-05-06 14:41 22.75157 122.21533 41000 ft 505 kts 47°
2026-05-06 14:41 22.79522 122.27486 40999 ft 505 kts 47°
2026-05-06 14:42 22.83886 122.33444 40998 ft 505 kts 47°
2026-05-06 14:42 22.88226 122.39376 40996 ft 505 kts 47°
2026-05-06 14:43 22.92590 122.45349 40996 ft 505 kts 47°
2026-05-06 14:43 22.96952 122.51325 41000 ft 505 kts 47°
2026-05-06 14:44 23.01315 122.57310 40996 ft 505 kts 47°
2026-05-06 14:45 23.07856 122.66296 40998 ft 506 kts 47°
2026-05-06 14:45 23.12220 122.72298 40995 ft 506 kts 47°
2026-05-06 14:46 23.16578 122.78302 40994 ft 506 kts 47°
2026-05-06 14:46 23.20936 122.84312 40994 ft 506 kts 47°
2026-05-06 14:47 23.25299 122.90334 40995 ft 506 kts 47°
2026-05-06 14:47 23.29651 122.96350 40994 ft 507 kts 47°
2026-05-06 14:48 23.33984 123.02404 41001 ft 508 kts 50°
2026-05-06 14:48 23.38012 123.08742 41004 ft 510 kts 52°
2026-05-06 14:49 23.41943 123.15163 41006 ft 510 kts 52°
2026-05-06 14:49 23.45918 123.21561 40992 ft 509 kts 52°
2026-05-06 14:50 23.49923 123.27930 40999 ft 510 kts 51°
2026-05-06 14:50 23.53933 123.34292 40995 ft 510 kts 51°
2026-05-06 14:51 23.57942 123.40662 41004 ft 510 kts 52°
2026-05-06 14:51 23.61952 123.47045 40997 ft 510 kts 52°
2026-05-06 14:52 23.65887 123.53318 40999 ft 510 kts 52°
2026-05-06 14:52 23.69887 123.59704 41000 ft 510 kts 52°
2026-05-06 14:53 23.73892 123.66106 40999 ft 510 kts 52°
2026-05-06 14:53 23.77897 123.72517 40996 ft 510 kts 52°
2026-05-06 14:54 23.81894 123.78921 40997 ft 510 kts 52°
2026-05-06 14:54 23.85890 123.85333 41002 ft 511 kts 52°
2026-05-06 14:55 23.89862 123.91714 41003 ft 511 kts 52°
2026-05-06 14:55 23.93855 123.98138 41003 ft 511 kts 52°
2026-05-06 14:56 23.97878 124.04540 41002 ft 510 kts 51°
2026-05-06 14:56 24.01997 124.10866 41006 ft 510 kts 50°
2026-05-06 14:57 24.06120 124.17188 41008 ft 510 kts 50°
2026-05-06 14:57 24.10228 124.23530 41000 ft 511 kts 51°
2026-05-06 14:58 24.14327 124.29887 41001 ft 511 kts 51°
2026-05-06 14:58 24.18423 124.36252 40999 ft 511 kts 51°
2026-05-06 14:59 24.22514 124.42616 41001 ft 511 kts 51°
2026-05-06 14:59 24.26555 124.48909 41002 ft 511 kts 51°
2026-05-06 15:00 24.30650 124.55294 41003 ft 512 kts 51°
2026-05-06 15:00 24.34717 124.61644 41007 ft 512 kts 51°
2026-05-06 15:01 24.38805 124.68036 41003 ft 512 kts 51°
2026-05-06 15:01 24.42891 124.74430 41005 ft 512 kts 51°
2026-05-06 15:02 24.46975 124.80832 41000 ft 512 kts 51°
2026-05-06 15:02 24.51057 124.87239 41000 ft 512 kts 51°
2026-05-06 15:03 24.55136 124.93648 40999 ft 512 kts 51°
2026-05-06 15:03 24.59214 125.00067 41012 ft 512 kts 51°
2026-05-06 15:04 24.63288 125.06486 40992 ft 512 kts 51°
2026-05-06 15:04 24.67356 125.12903 40991 ft 512 kts 51°
2026-05-06 15:05 24.71423 125.19329 41014 ft 512 kts 51°
2026-05-06 15:05 24.75487 125.25758 41023 ft 512 kts 51°
2026-05-06 15:06 24.79524 125.32215 41022 ft 512 kts 53°
2026-05-06 15:06 24.83282 125.38836 41022 ft 514 kts 54°
2026-05-06 15:07 24.86995 125.45561 41020 ft 514 kts 54°
2026-05-06 15:07 24.90738 125.52257 41020 ft 513 kts 54°
2026-05-06 15:08 24.94506 125.58938 41015 ft 513 kts 54°
2026-05-06 15:08 24.98172 125.65426 41021 ft 514 kts 54°
2026-05-06 15:08 25.00055 125.68764 40846 ft 512 kts 54°
2026-05-06 15:09 25.01935 125.72100 40608 ft 513 kts 54°
2026-05-06 15:09 25.03819 125.75445 40364 ft 514 kts 54°
2026-05-06 15:09 25.05703 125.78794 40134 ft 514 kts 54°
2026-05-06 15:09 25.07592 125.82153 39897 ft 515 kts 54°
2026-05-06 15:10 25.09477 125.85511 39666 ft 515 kts 54°
2026-05-06 15:10 25.11361 125.88867 39428 ft 515 kts 54°
2026-05-06 15:10 25.13239 125.92217 38924 ft 512 kts 54°
2026-05-06 15:10 25.15115 125.95566 38204 ft 513 kts 53°
2026-05-06 15:11 25.16994 125.98921 37488 ft 513 kts 53°
2026-05-06 15:11 25.18870 126.02272 36781 ft 512 kts 53°
2026-05-06 15:11 25.20742 126.05619 36068 ft 513 kts 53°
2026-05-06 15:11 25.22594 126.08930 35331 ft 513 kts 53°
2026-05-06 15:12 25.24474 126.12295 34512 ft 516 kts 53°
2026-05-06 15:12 25.26362 126.15674 33641 ft 518 kts 53°
2026-05-06 15:12 25.28253 126.19064 32719 ft 519 kts 53°
2026-05-06 15:12 25.30148 126.22461 31805 ft 520 kts 53°
2026-05-06 15:13 25.32045 126.25868 30856 ft 521 kts 53°
2026-05-06 15:13 25.33943 126.29278 30035 ft 519 kts 53°
2026-05-06 15:13 25.35824 126.32665 29278 ft 514 kts 53°
2026-05-06 15:13 25.37681 126.36012 28601 ft 507 kts 53°
2026-05-06 15:14 25.39515 126.39322 27936 ft 501 kts 53°
2026-05-06 15:14 25.40719 126.41494 27502 ft 498 kts 53°
2026-05-06 15:14 25.42520 126.44743 26856 ft 492 kts 53°
2026-05-06 15:14 25.44298 126.47953 26209 ft 487 kts 53°
2026-05-06 15:15 25.46063 126.51138 25570 ft 482 kts 53°
2026-05-06 15:15 25.47805 126.54285 24937 ft 478 kts 53°
2026-05-06 15:15 25.49528 126.57411 24310 ft 473 kts 54°
2026-05-06 15:15 25.51234 126.60513 23690 ft 469 kts 54°
2026-05-06 15:16 25.52921 126.63584 22980 ft 464 kts 54°
2026-05-06 15:16 25.54588 126.66618 22340 ft 458 kts 54°
2026-05-06 15:16 25.56230 126.69610 21693 ft 452 kts 54°
2026-05-06 15:16 25.57850 126.72564 21074 ft 446 kts 54°
2026-05-06 15:17 25.59448 126.75480 20459 ft 440 kts 54°
2026-05-06 15:17 25.61030 126.78365 19839 ft 435 kts 54°
2026-05-06 15:17 25.62589 126.81213 19218 ft 431 kts 54°
2026-05-06 15:17 25.64136 126.84038 18594 ft 426 kts 55°
2026-05-06 15:18 25.65666 126.86834 17925 ft 422 kts 55°
2026-05-06 15:18 25.67160 126.89570 17285 ft 417 kts 55°
2026-05-06 15:18 25.68670 126.92338 16653 ft 412 kts 55°
2026-05-06 15:18 25.70125 126.95006 16046 ft 407 kts 55°
2026-05-06 15:19 25.71583 126.97680 15425 ft 403 kts 56°
2026-05-06 15:19 25.73029 127.00330 14830 ft 399 kts 56°
2026-05-06 15:19 25.74456 127.02949 14231 ft 396 kts 56°
2026-05-06 15:19 25.75874 127.05553 13583 ft 393 kts 56°
2026-05-06 15:20 25.77282 127.08137 12940 ft 389 kts 56°
2026-05-06 15:20 25.78674 127.10694 12332 ft 385 kts 57°
2026-05-06 15:20 25.80051 127.13227 11744 ft 381 kts 57°
2026-05-06 15:20 25.81413 127.15732 11295 ft 375 kts 57°
2026-05-06 15:21 25.82727 127.18156 11163 ft 358 kts 57°
2026-05-06 15:21 25.83982 127.20474 11032 ft 343 kts 57°
2026-05-06 15:21 25.85185 127.22694 10905 ft 329 kts 57°
2026-05-06 15:21 25.86341 127.24826 10785 ft 316 kts 57°
2026-05-06 15:22 25.87453 127.26879 10659 ft 305 kts 57°
2026-05-06 15:22 25.88532 127.28869 10504 ft 299 kts 57°
2026-05-06 15:22 25.89783 127.30688 10175 ft 294 kts 40°
2026-05-06 15:22 25.91474 127.31912 9875 ft 292 kts 22°
2026-05-06 15:23 25.93377 127.32877 9708 ft 306 kts 20°
2026-05-06 15:23 25.95328 127.33833 9454 ft 305 kts 21°
2026-05-06 15:23 25.97273 127.34796 8938 ft 307 kts 21°
2026-05-06 15:23 25.99217 127.35767 8556 ft 304 kts 21°
2026-05-06 15:24 26.01129 127.36727 8227 ft 300 kts 22°
2026-05-06 15:24 26.03022 127.37681 7915 ft 298 kts 22°
2026-05-06 15:24 26.04908 127.38631 7589 ft 297 kts 22°
2026-05-06 15:24 26.06780 127.39576 7287 ft 294 kts 22°
2026-05-06 15:25 26.08632 127.40512 6976 ft 292 kts 22°
2026-05-06 15:25 26.10476 127.41445 6673 ft 290 kts 22°
2026-05-06 15:25 26.12305 127.42369 6351 ft 288 kts 22°
2026-05-06 15:25 26.14123 127.43289 6047 ft 286 kts 23°
2026-05-06 15:26 26.15932 127.44205 5744 ft 285 kts 23°
2026-05-06 15:26 26.17729 127.45114 5446 ft 283 kts 23°
2026-05-06 15:26 26.19518 127.46019 5136 ft 281 kts 23°
2026-05-06 15:26 26.21294 127.46919 4840 ft 280 kts 23°
2026-05-06 15:27 26.23065 127.47816 4526 ft 279 kts 23°
2026-05-06 15:27 26.24825 127.48708 4226 ft 277 kts 24°
2026-05-06 15:27 26.26580 127.49597 3919 ft 276 kts 24°
2026-05-06 15:27 26.28299 127.50469 3627 ft 275 kts 24°
2026-05-06 15:28 26.30035 127.51349 3333 ft 273 kts 24°
2026-05-06 15:28 26.31739 127.52234 3107 ft 265 kts 27°
2026-05-06 15:28 26.33165 127.53449 2912 ft 254 kts 51°
2026-05-06 15:28 26.33922 127.55152 2749 ft 241 kts 79°
2026-05-06 15:29 26.34098 127.56962 2629 ft 230 kts 89°
2026-05-06 15:29 26.34148 127.58710 2479 ft 220 kts 89°
2026-05-06 15:29 26.34075 127.60372 2353 ft 209 kts 103°
2026-05-06 15:29 26.33444 127.61725 2177 ft 190 kts 135°
2026-05-06 15:30 26.32357 127.62460 2080 ft 181 kts 161°
2026-05-06 15:30 26.31135 127.62556 1962 ft 170 kts 184°
2026-05-06 15:30 26.29980 127.62537 1818 ft 163 kts 176°
2026-05-06 15:30 26.28856 127.62660 1677 ft 163 kts 174°
2026-05-06 15:31 26.27756 127.62724 1460 ft 153 kts 176°
2026-05-06 15:31 26.26724 127.62783 1273 ft 145 kts 175°
2026-05-06 15:31 26.25748 127.62847 1083 ft 135 kts 175°
2026-05-06 15:32 26.23931 127.63006 744 ft 130 kts 171°
2026-05-06 15:32 26.23030 127.63111 584 ft 130 kts 174°
2026-05-06 15:32 26.22127 127.63155 449 ft 132 kts 176°
2026-05-06 15:32 26.21197 127.63196 251 ft 131 kts 175°
2026-05-06 15:33 26.20297 127.63241 67 ft 131 kts 175°
2026-05-06 15:33 26.19432 127.63284 24 ft 101 kts 178°
2026-05-06 15:33 26.19030 127.63300 21 ft 18 kts 178°
2026-05-06 15:33 26.18899 127.63310 21 ft 20 kts 172°
2026-05-06 15:34 26.18763 127.63355 22 ft 21 kts 155°
2026-05-06 15:34 26.18673 127.63413 23 ft 12 kts 148°
2026-05-06 15:34 26.18636 127.63471 26 ft 7 kts 90°
2026-05-06 15:34 26.18672 127.63503 23 ft 9 kts 17°
2026-05-06 15:35 26.18752 127.63505 23 ft 14 kts 357°
2026-05-06 15:35 26.18870 127.63499 23 ft 20 kts 358°
2026-05-06 15:35 26.19024 127.63491 25 ft 24 kts 358°
2026-05-06 15:35 26.19205 127.63483 23 ft 27 kts 357°
2026-05-06 15:36 26.19404 127.63473 23 ft 30 kts 357°
2026-05-06 15:36 26.19618 127.63463 26 ft 32 kts 358°
2026-05-06 15:36 26.19835 127.63453 26 ft 28 kts 357°
2026-05-06 15:36 26.20016 127.63444 26 ft 25 kts 358°
2026-05-06 15:37 26.20148 127.63439 23 ft 14 kts 358°
2026-05-06 15:37 26.20234 127.63435 23 ft 11 kts 357°
2026-05-06 15:37 26.20295 127.63473 23 ft 12 kts 68°
2026-05-06 15:37 26.20305 127.63575 23 ft 15 kts 88°
2026-05-06 15:38 26.20309 127.63704 24 ft 18 kts 88°
2026-05-06 15:38 26.20315 127.63855 24 ft 21 kts 87°
2026-05-06 15:38 26.20321 127.64027 27 ft 23 kts 87°
2026-05-06 15:38 26.20327 127.64169 23 ft 10 kts 88°
2026-05-06 15:39 26.20328 127.64208 23 ft 3 kts 88°
2026-05-06 15:39 26.20329 127.64211 23 ft 0 kts 88°
2026-05-06 15:42 26.20329 127.64225 23 ft 5 kts 88°
2026-05-06 15:42 26.20333 127.64275 23 ft 6 kts 77°
2026-05-06 15:43 26.20354 127.64304 27 ft 5 kts 33°
2026-05-06 15:43 26.20401 127.64314 25 ft 10 kts
2026-05-06 15:43 26.20484 127.64311 26 ft 12 kts 358°
2026-05-06 15:43 26.20574 127.64315 26 ft 15 kts 10°
2026-05-06 15:44 26.20688 127.64342 25 ft 17 kts 12°
2026-05-06 15:44 26.20770 127.64363 23 ft 10 kts 12°
2026-05-06 15:44 26.20836 127.64378 23 ft 9 kts 12°
2026-05-06 15:44 26.20891 127.64406 23 ft 9 kts 36°
2026-05-06 15:45 26.20923 127.64472 23 ft 10 kts 87°
2026-05-06 15:45 26.20909 127.64537 28 ft 8 kts 107°
2026-05-06 15:45 26.20900 127.64614 25 ft 12 kts 88°
2026-05-06 15:45 26.20905 127.64709 23 ft 11 kts 85°
2026-05-06 15:46 26.20911 127.64779 27 ft 7 kts 85°
2026-05-06 15:46 26.20915 127.64830 26 ft 7 kts 81°
2026-05-06 15:46 26.20943 127.64874 27 ft 7 kts 30°
2026-05-06 15:46 26.21000 127.64884 26 ft 10 kts 359°
2026-05-06 15:47 26.21056 127.64890 27 ft 5 kts 32°
2026-05-06 15:47 26.21071 127.64921 27 ft 4 kts 77°
2026-05-06 15:47 26.21073 127.64948 28 ft 3 kts 87°
2026-05-06 15:47 26.21074 127.64964 28 ft 1 kts 87°
2026-05-06 15:48 26.21074 127.64966 28 ft 1 kts 87°